Flag for France Weather past 2 weeks in Bastia, Corsica, France

48 °F

Mostly cloudy.

Feels Like: 48 °F
Forecast: 48 / 52 °F
Wind: No wind

Location: Bastia Airport

Current Time: Nov 26, 2015 at 1:21:28 AM

Latest Report: Nov 26, 2015 at 12:30 AM

Visibility: N/A

Pressure: 29.50 "Hg

Humidity: 76%

Dew point: 41 °F

Location of BastiaLocation

Historic Weather in Bastia — Graph


Bastia temperature yesterday

Maximum temperature yesterday: 55 °F (at 11:00 AM)
Minimum temperature yesterday: 41 °F (at 3:00 AM)
Average temperature yesterday: 48 °F

Past Weeks' High & Low Weather Summary

High72 °F (Nov 21, 2:30 AM)100% (Nov 11, 1:00 AM)30.36 "Hg (Nov 11, 1:00 AM)
Low41 °F (Nov 23, 2:00 AM)27% (Nov 21, 3:36 PM)29.15 "Hg (Nov 21, 4:00 PM)
Average57 °F77%30.04 "Hg
* Reported Midnight between Nov 10 and Nov 11 — Midnight between Nov 25 and Nov 26, Bastia, Weather by CustomWeather, © 2015

Note: Actual official high and low records may vary slightly from our data, if they occured in-between our weather recording intervals... More about our weather records


Bastia weather history for previous 24 hours

Time TempWeatherWind HumidityBarometerVisibility
12:00 AM
Thu, Nov 26
48 °FPassing clouds.2 mph76%29.53 "HgN/A
11:30 PM
Wed, Nov 25
46 °FPassing clouds.3 mph87%29.53 "HgN/A
10:30 PM48 °FPassing clouds.3 mph76%29.53 "HgN/A
10:00 PM48 °FPassing clouds.8 mph76%29.56 "HgN/A
9:30 PM48 °FPassing clouds.8 mph76%29.56 "HgN/A
9:00 PM48 °FPassing clouds.5 mph76%29.59 "HgN/A
8:30 PM46 °FPartly cloudy.2 mph82%29.59 "HgN/A
8:00 PM48 °FPassing clouds.8 mph82%29.59 "HgN/A
7:30 PM48 °FPassing clouds.2 mph87%29.62 "HgN/A
7:00 PM50 °FPassing clouds.2 mph82%29.62 "HgN/A
6:30 PM50 °FPartly cloudy.5 mph88%29.62 "HgN/A
6:00 PM50 °FPartly cloudy.6 mph88%29.62 "HgN/A
5:30 PM50 °FPartly cloudy.2 mph82%29.62 "HgN/A
5:00 PM52 °FPassing clouds.2 mph82%29.65 "HgN/A
4:30 PM52 °FLight rain. Broken clouds.No wind77%29.65 "HgN/A
4:00 PM54 °FLight rain. Broken clouds.2 mph77%29.68 "HgN/A
3:30 PM54 °FPartly sunny.3 mph72%29.68 "HgN/A
3:00 PM54 °FMostly cloudy.2 mph67%29.71 "HgN/A
2:30 PM54 °FPartly sunny.3 mph67%29.71 "HgN/A
2:00 PM54 °FPartly sunny.5 mph67%29.71 "HgN/A
1:30 PM54 °FPartly sunny.5 mph67%29.74 "HgN/A
1:00 PM54 °FPartly sunny.6 mph67%29.77 "HgN/A
12:30 PM54 °FPartly sunny.8 mph67%29.77 "HgN/A
12:00 PM55 °FPartly sunny.8 mph59%29.80 "HgN/A
11:30 AM55 °FPartly sunny.9 mph59%29.80 "HgN/A
11:00 AM55 °FBroken clouds.2 mph63%29.83 "HgN/A
10:30 AM54 °FBroken clouds.3 mph67%29.83 "HgN/A
10:00 AM50 °FScattered clouds.3 mph71%29.83 "HgN/A
9:30 AM48 °FBroken clouds.3 mph76%29.86 "HgN/A
9:00 AM46 °FPartly sunny.6 mph76%29.86 "HgN/A
8:30 AM45 °FPartly sunny.6 mph81%29.89 "HgN/A
8:00 AM45 °FPartly sunny.No wind76%29.89 "HgN/A
7:30 AM43 °FPartly sunny.5 mph81%29.89 "HgN/A
6:30 AM43 °FPassing clouds.9 mph81%29.89 "HgN/A
6:00 AM43 °FPassing clouds.3 mph81%29.92 "HgN/A
5:30 AM41 °FPassing clouds.5 mph87%29.92 "HgN/A
5:00 AM43 °FPassing clouds.5 mph81%29.95 "HgN/A
4:30 AM43 °FPassing clouds.7 mph87%29.95 "HgN/A
4:00 AM41 °FPassing clouds.5 mph87%29.95 "HgN/A
3:30 AM41 °FPassing clouds.5 mph87%29.98 "HgN/A
3:00 AM41 °FClear.5 mph93%29.98 "Hg10 mi
2:30 AM43 °FClear.5 mph87%29.98 "Hg10 mi
2:00 AM43 °FClear.6 mph87%29.98 "Hg10 mi
1:00 AM45 °FPassing clouds.3 mph81%30.01 "HgN/A
Weather by CustomWeather, © 2015

See weather overviewHow to use our weather pages